Regional Weather Roundup
Issued by NWS Newport/Morehead, NC

Current Version | Previous Version | Graphics & Text | Print | Product List | Glossary On
Versions: 1 2 3 4 5 6 7 8 9 10 11 12 13 14 15 16 17 18 19 20 21 22 23 24 25 26 27 28 29 30 31 32 33 34 35 36 37 38 39 40 41 42 43 44 45 46 47 48 49 50
000
ASUS42 KMHX 041713
RWRMHX
WEATHER ROUNDUP FOR EASTERN NORTH CAROLINA
NATIONAL WEATHER SERVICE NEWPORT/MOREHEAD CITY NC
100 PM EDT MON MAY 04 2015

NOTE: "FAIR" INDICATES FEW OR NO CLOUDS BELOW 12,000 FEET
WITH NO SIGNIFICANT WEATHER AND/OR OBSTRUCTIONS TO VISIBILITY

NCZ015>017-031-032-045>047-102-103-041800-
NORTH COAST

CITY           SKY/WX    TMP DP  RH WIND       PRES   REMARKS
EDENTON        SUNNY     79  47  32 SW6       30.32F
ELIZABETH CITY SUNNY     79  47  32 SW13      30.32F
KITTY HAWK     SUNNY     77  48  36 NW3       30.31F
MANTEO         PTSUNNY   74  54  49 SW7       30.33F

$$

NCZ045>047-081-094-103-104-041800-
CENTRAL COAST

CITY           SKY/WX    TMP DP  RH WIND       PRES   REMARKS
FRISCO         SUNNY     67  59  75 SW8       30.35F
SWANQUARTER      N/A     75 N/A N/A S6        30.30F

$$

NCZ095-097-098-100-101-041800-
SOUTHERN COAST

CITY           SKY/WX    TMP DP  RH WIND       PRES   REMARKS
BEAUFORT       SUNNY     74  52  46 S9        30.35S
CEDAR ISLAND     N/A     73 N/A N/A E7        30.39S
JACKSONVILLE   SUNNY     79  44  28 SE8       30.33F
PINEY ISLAND   SUNNY    N/A N/A N/A E9        30.33F
WILMINGTON     SUNNY     78  54  43 SE12G18   30.33F


$$

NCZ011>013-027>030-043-044-078>080-089-090>093-098-041800-
COASTAL PLAIN

CITY           SKY/WX    TMP DP  RH WIND       PRES   REMARKS
AHOSKIE        SUNNY     79  49  35 S6        30.30F
CLINTON        SUNNY     79  51  37 S5        30.33F
ELIZABETHTOWN  MOSUNNY   79  46  31 CALM      30.33F
GOLDSBORO      MOSUNNY   80  47  31 SW8       30.30F
GREENVILLE     SUNNY     81  46  30 SW9G16    30.33F
HAVELOCK       MOSUNNY   79  45  29 VRB5      30.34F
KENANSVILLE    SUNNY     78  46  31 S3        30.34F
KINSTON        SUNNY     81  45  28 S6        30.33F
NEW BERN       MOSUNNY   81  45  28 S7        30.34F
RICHLANDS      PTSUNNY   81  48  32 SW8       30.34F
ROCKY MOUNT    SUNNY     79  50  36 S10       30.31F
WASHINGTON     SUNNY     78  46  31 SW8       30.33F
WHITEVILLE     SUNNY     78  49  36 CALM      30.33F

$$

AMZ130-135-150-152-154-156-158-170-250-252-270-ANZ085-086-088-633-658-670-041800-
MARINE OBSERVATIONS

STATION/POSITION TIME  TEMP    WIND        PRES    WAVE   SWELL
                       AIR SEA DIR/SP/G            HT/PER HT/PER
                 (UTC) (F)     (DEG/KT/KT) (MB)    (FT/S) (FT/S)
CHESAPEAKE LIGHT 1700   67     190/  3/  3 1026.9
64 E VA BEACH    1650   60 61  220/  8/ 10 1026.6    3/12   3/12
DUCK             1600   73 55  250/  9/ 12 1026.1
2 E DUCK         1611      60                N/A     3/13   2/13
OREGON INLET     1600   70 63  120/  3/  9 1027.5
13E OREGON INLT  1700      56                N/A     3/13   2/13
HATTERAS CG      1600   71 63  270/  5/  7 1027.5
DIAMOND BUOY     1650   69 78  290/  2/  4 1028.0    4/10   3/10
CAPE LOOKOUT     1700   70     160/  7/  7 1027.6
BEAUFORT LAB     1600   70 65  180/  8/  8 1027.0
27 SE WRIGHTSVLE 1600   73 72   CALM  /  2   N/A
5 SE WRIGHTSVLE  1608   71 67  150/  6/  8 1028.0
225 S CAPE HAT   1650   68 70   90/ 14/ 16 1028.0    6/12   5/12
41 SE CHARLESTON 1650   73 74   70/ 10/ 12 1027.0    3/10   3/10

$$


USA.gov is the U.S. government's official web portal to all federal, state and local government web resources and services.